Location: Blanot
(47.1713°N, 4.2340°E)
Time: 21:11:07
(UTC+00:00)

Meteor 2-4 Rocket - Pass Details

Date: 14 July 2020
Orbit: 799 x 908 km, 81.2° (Epoch: 14 August)

Event Time Altitude Azimuth Distance (km) Brightness Sun altitude
Rises 01:56:23 0° 344° (NNW) 3,550 7.6 -15.5°
Reaches altitude 10° 01:58:56 10° 339° (NNW) 2,603 6.8 -15.2°
Maximum altitude 02:04:38 50° 267° (W) 1,145 4.1 -14.7°
Enters shadow 02:08:30 20° 200° (SSW) 1,951 5.0 -14.4°
